Flag for Germany Weather past 2 weeks in Ilmenau, Thuringia, Germany

Now
54 °F

Partly sunny.


Feels Like: 53 °F
Forecast: 42 / 52 °F
Wind: 5 mph from South

Location: Erfurt-Bindersleben

Current Time: Oct 26, 2014 at 10:31:52 AM

Latest Report: Oct 26, 2014 at 9:50 AM


Visibility: N/A

Pressure: 30.30 "Hg

Humidity: 88%

Dew point: 50 °F

Location of IlmenauLocation

Historic Weather in Ilmenau — Graph

°F

Ilmenau temperature yesterday

Maximum temperature yesterday: 54 °F (at 12:50 PM)
Minimum temperature yesterday: 43 °F (at 1:20 AM)
Average temperature yesterday: 49 °F

Past Weeks' High & Low Weather Summary

 TemperatureHumidityPressure
High68 °F (Oct 19, 12:20 PM)100% (Oct 11, 10:20 AM)30.30 "Hg (Oct 11, 10:20 AM)
Low37 °F (Oct 24, 2:20 AM)55% (Oct 15, 2:50 PM)29.47 "Hg (Oct 21, 8:20 PM)
Average53 °F86%29.95 "Hg
* Reported Oct 11 10:20 AM — Oct 26 9:20 AM, Ilmenau, Weather by CustomWeather, © 2014

Note: Actual official high and low records may vary slightly from our data, if they occured in-between our weather recording intervals... More about our weather records

Advertising

Ilmenau weather history for previous 24 hours

 ConditionsComfort  
Time TempWeatherWind HumidityBarometerVisibility
9:20 AM
Oct 26
52 °FPartly sunny.6 mph88%30.30 "HgN/A
8:50 AM50 °FOvercast.3 mph94%30.30 "HgN/A
8:20 AM50 °FPartly sunny.6 mph94%30.30 "HgN/A
7:50 AM50 °FPartly sunny.6 mph94%30.30 "HgN/A
7:20 AM48 °FPartly sunny.7 mph94%30.27 "HgN/A
6:50 AM48 °FPassing clouds.8 mph94%30.27 "HgN/A
6:20 AM48 °FPassing clouds.8 mph94%30.27 "HgN/A
5:50 AM48 °FPassing clouds.7 mph94%30.27 "HgN/A
5:20 AM48 °FPartly cloudy.6 mph94%30.27 "HgN/A
4:50 AM48 °FLight rain. Passing clouds.6 mph94%30.27 "HgN/A
4:20 AM48 °FPassing clouds.7 mph94%30.24 "HgN/A
3:50 AM48 °FPassing clouds.7 mph94%30.24 "HgN/A
3:20 AM48 °FPassing clouds.8 mph94%30.24 "HgN/A
2:50 AM48 °FPassing clouds.9 mph94%30.24 "HgN/A
2:20 AM48 °FPassing clouds.6 mph94%30.24 "HgN/A
2:50 AM48 °FPassing clouds.3 mph94%30.24 "HgN/A
2:20 AM48 °FPassing clouds.8 mph94%30.24 "HgN/A
1:50 AM48 °FPassing clouds.9 mph94%30.24 "HgN/A
1:20 AM48 °FPassing clouds.9 mph94%30.24 "HgN/A
12:50 AM50 °FPassing clouds.9 mph88%30.21 "HgN/A
12:20 AM50 °FPassing clouds.9 mph88%30.21 "HgN/A
11:50 PM
Oct 25
50 °FPassing clouds.8 mph88%30.21 "HgN/A
11:20 PM48 °FPartly cloudy.8 mph94%30.21 "HgN/A
10:50 PM48 °FPartly cloudy.8 mph94%30.21 "HgN/A
10:20 PM50 °FPartly cloudy.9 mph88%30.18 "HgN/A
9:50 PM50 °FPassing clouds.8 mph88%30.18 "HgN/A
9:20 PM50 °FPassing clouds.9 mph88%30.18 "HgN/A
8:50 PM50 °FPartly cloudy.9 mph88%30.18 "HgN/A
8:20 PM50 °FPartly cloudy.8 mph88%30.18 "HgN/A
7:50 PM50 °FPassing clouds.6 mph88%30.18 "HgN/A
7:20 PM50 °FPassing clouds.6 mph88%30.15 "HgN/A
6:50 PM50 °FScattered clouds.5 mph88%30.15 "HgN/A
6:20 PM52 °FBroken clouds.3 mph82%30.15 "HgN/A
5:50 PM52 °FPartly sunny.3 mph82%30.15 "HgN/A
5:20 PM54 °FPartly sunny.5 mph77%30.12 "HgN/A
4:50 PM54 °FPartly sunny.3 mph72%30.12 "HgN/A
4:20 PM54 °FPartly sunny.6 mph72%30.12 "HgN/A
3:50 PM54 °FPartly sunny.8 mph77%30.12 "HgN/A
3:20 PM54 °FPartly sunny.9 mph72%30.12 "HgN/A
2:50 PM54 °FLight rain. Partly sunny.8 mph72%30.12 "HgN/A
2:20 PM52 °FLight rain. Partly sunny.7 mph77%30.12 "HgN/A
1:50 PM54 °FPartly sunny.7 mph77%30.12 "HgN/A
1:20 PM54 °FBroken clouds.6 mph72%30.12 "HgN/A
12:50 PM54 °FBroken clouds.7 mph77%30.12 "HgN/A
12:20 PM52 °FSunny.6 mph77%30.12 "Hg10 mi
11:50 AM52 °FSunny.6 mph77%30.12 "Hg10 mi
11:20 AM50 °FSunny.6 mph82%30.12 "Hg10 mi
10:50 AM48 °FSunny.7 mph87%30.12 "Hg10 mi
10:20 AM48 °FSunny.7 mph87%30.09 "Hg10 mi
Weather by CustomWeather, © 2014

See weather overviewHow to use our weather pages